Location: Newark
(49.1000°N, 0.4667°W)
Time: 10:45:11
(UTC+00:00)

BEESAT 3 - Pass Details

Date: 06 July 2020
Orbit: 482 x 522 km, 64.9° (Epoch: 10 August)

Event Time Altitude Azimuth Distance (km) Brightness Sun altitude
Rises 21:50:21 0° 230° (SW) 2,635 ? -12.2°
Reaches altitude 10° 21:52:34 10° 235° (SW) 1,754 ? -12.3°
Maximum altitude 21:56:25 53° 313° (NW) 647 ? -12.7°
Drops below altitude 10° 22:00:19 10° 32° (NNE) 1,769 ? -13.0°
Sets 22:02:33 0° 37° (NE) 2,660 ? -13.2°
